category,name,time,total,current
風力(Wind),四湖,23:10:00,28,0.2
風力(Wind),石門,00:00:00,4,0
風力(Wind),石門,00:10:00,4,0
風力(Wind),石門,00:20:00,4,0
風力(Wind),石門,00:30:00,4,0
風力(Wind),石門,00:40:00,4,0
風力(Wind),石門,00:50:00,4,0
風力(Wind),石門,01:00:00,4,0
風力(Wind),石門,01:10:00,4,0
風力(Wind),石門,01:20:00,4,0
風力(Wind),石門,01:30:00,4,0
風力(Wind),石門,01:40:00,4,0
風力(Wind),石門,01:50:00,4,0
風力(Wind),石門,02:00:00,4,0
風力(Wind),石門,02:10:00,4,0
風力(Wind),石門,02:20:00,4,0
風力(Wind),石門,02:30:00,4,0
風力(Wind),石門,02:40:00,4,0
風力(Wind),石門,02:50:00,4,0
風力(Wind),石門,03:00:00,4,0
風力(Wind),石門,03:10:00,4,0
風力(Wind),石門,03:20:00,4,0
風力(Wind),石門,03:30:00,4,0
風力(Wind),石門,03:40:00,4,0
風力(Wind),石門,03:50:00,4,0
風力(Wind),石門,04:00:00,4,0
風力(Wind),石門,04:10:00,4,0
風力(Wind),石門,04:20:00,4,0
風力(Wind),石門,04:30:00,4,0
風力(Wind),石門,04:40:00,4,0
風力(Wind),石門,04:50:00,4,0
風力(Wind),石門,05:00:00,4,0
風力(Wind),石門,05:10:00,4,0
風力(Wind),石門,05:20:00,4,0
風力(Wind),石門,05:30:00,4,0
風力(Wind),石門,05:40:00,4,0
風力(Wind),石門,05:50:00,4,0
風力(Wind),石門,06:00:00,4,0
風力(Wind),石門,06:10:00,4,0
風力(Wind),石門,06:20:00,4,0
風力(Wind),石門,06:30:00,4,0
風力(Wind),石門,06:40:00,4,0
風力(Wind),石門,06:50:00,4,0
風力(Wind),石門,07:00:00,4,0
風力(Wind),石門,07:10:00,4,0
風力(Wind),石門,07:20:00,4,0
風力(Wind),石門,07:30:00,4,0.2
風力(Wind),石門,07:40:00,4,0
風力(Wind),石門,07:50:00,4,0
風力(Wind),石門,08:00:00,4,0
風力(Wind),石門,08:10:00,4,0.1
風力(Wind),石門,08:20:00,4,0
風力(Wind),石門,08:30:00,4,0
風力(Wind),石門,08:40:00,4,0
風力(Wind),石門,08:50:00,4,0
風力(Wind),石門,09:00:00,4,0
風力(Wind),石門,09:10:00,4,0
風力(Wind),石門,09:20:00,4,0
風力(Wind),石門,09:30:00,4,0
風力(Wind),石門,09:40:00,4,0
風力(Wind),石門,09:50:00,4,0
風力(Wind),石門,10:00:00,4,0
風力(Wind),石門,10:10:00,4,0
風力(Wind),石門,10:20:00,4,0.2
風力(Wind),石門,10:30:00,4,0.2
風力(Wind),石門,10:40:00,4,0.7
風力(Wind),石門,10:50:00,4,0.9
風力(Wind),石門,11:00:00,4,0.6
風力(Wind),石門,11:10:00,4,0.6
風力(Wind),石門,11:20:00,4,1
風力(Wind),石門,11:30:00,4,0.3
風力(Wind),石門,11:40:00,4,0.6
風力(Wind),石門,11:50:00,4,0.4
風力(Wind),石門,12:00:00,4,0.7
風力(Wind),石門,12:10:00,4,1.1
風力(Wind),石門,12:20:00,4,1
風力(Wind),石門,12:30:00,4,1
風力(Wind),石門,12:40:00,4,0.9
風力(Wind),石門,12:50:00,4,1.3
風力(Wind),石門,13:00:00,4,1.1
風力(Wind),石門,13:10:00,4,1
風力(Wind),石門,13:20:00,4,1
風力(Wind),石門,13:30:00,4,0.5
風力(Wind),石門,13:40:00,4,1.2
風力(Wind),石門,13:50:00,4,1.7
風力(Wind),石門,14:00:00,4,0.7
風力(Wind),石門,14:10:00,4,1.2
風力(Wind),石門,14:20:00,4,0.9
風力(Wind),石門,14:30:00,4,1
風力(Wind),石門,14:40:00,4,1.3
風力(Wind),石門,14:50:00,4,1.1
風力(Wind),石門,15:00:00,4,1.1
風力(Wind),石門,15:10:00,4,0.5
風力(Wind),石門,15:20:00,4,0.7
風力(Wind),石門,15:30:00,4,0.7
風力(Wind),石門,15:40:00,4,0.9
風力(Wind),石門,15:50:00,4,0.6
風力(Wind),石門,16:00:00,4,0.5
風力(Wind),石門,16:10:00,4,0.3
風力(Wind),石門,16:20:00,4,0.3
風力(Wind),石門,16:30:00,4,0.6
風力(Wind),石門,16:40:00,4,0.3
風力(Wind),石門,16:50:00,4,0.8
風力(Wind),石門,17:00:00,4,0
風力(Wind),石門,17:10:00,4,0
風力(Wind),石門,17:20:00,4,0
風力(Wind),石門,17:30:00,4,0
風力(Wind),石門,17:40:00,4,0
風力(Wind),石門,17:50:00,4,0
風力(Wind),石門,18:00:00,4,0
風力(Wind),石門,18:10:00,4,0
風力(Wind),石門,18:20:00,4,0
風力(Wind),石門,18:30:00,4,0
風力(Wind),石門,18:40:00,4,0
風力(Wind),石門,18:50:00,4,0
風力(Wind),石門,19:00:00,4,0
風力(Wind),石門,19:10:00,4,0
風力(Wind),石門,19:20:00,4,0
風力(Wind),石門,19:30:00,4,0
風力(Wind),石門,19:40:00,4,0
風力(Wind),石門,19:50:00,4,0
風力(Wind),石門,20:00:00,4,0
風力(Wind),石門,20:10:00,4,0
風力(Wind),石門,20:20:00,4,0
風力(Wind),石門,20:30:00,4,0
風力(Wind),石門,20:40:00,4,0
風力(Wind),石門,20:50:00,4,0
風力(Wind),石門,21:00:00,4,0
風力(Wind),石門,21:10:00,4,0
風力(Wind),石門,21:20:00,4,0
風力(Wind),石門,21:30:00,4,0
風力(Wind),石門,21:40:00,4,0
風力(Wind),石門,21:50:00,4,0
風力(Wind),石門,22:00:00,4,0
風力(Wind),石門,22:10:00,4,0
風力(Wind),石門,22:20:00,4,0
風力(Wind),石門,22:30:00,4,0
風力(Wind),石門,22:40:00,4,0
風力(Wind),石門,22:50:00,4,0
風力(Wind),石門,23:00:00,4,0
風力(Wind),石門,23:10:00,4,0
風力(Wind),石門,23:20:00,4,0
風力(Wind),石門,23:30:00,4,0
風力(Wind),石門,23:40:00,4,0
風力(Wind),石門,23:50:00,4,0
風力(Wind),林口,00:00:00,6,0.8
風力(Wind),林口,00:10:00,6,0.9
風力(Wind),林口,00:20:00,6,1.5
風力(Wind),林口,00:30:00,6,1
風力(Wind),林口,00:40:00,6,1.3
風力(Wind),林口,00:50:00,6,1.4
風力(Wind),林口,01:00:00,6,1.4
風力(Wind),林口,01:10:00,6,1
風力(Wind),林口,01:20:00,6,1.3
風力(Wind),林口,01:30:00,6,1.2
風力(Wind),林口,01:40:00,6,0.6
風力(Wind),林口,01:50:00,6,0.4
風力(Wind),林口,02:00:00,6,0.2
風力(Wind),林口,02:10:00,6,0.2
風力(Wind),林口,02:20:00,6,0.3
風力(Wind),林口,02:30:00,6,0.3
風力(Wind),林口,02:40:00,6,0
風力(Wind),林口,02:50:00,6,0
風力(Wind),林口,03:00:00,6,0
風力(Wind),林口,03:10:00,6,0
風力(Wind),林口,03:20:00,6,0
風力(Wind),林口,03:30:00,6,0
風力(Wind),林口,03:40:00,6,0
風力(Wind),林口,03:50:00,6,0
風力(Wind),林口,04:00:00,6,0
風力(Wind),林口,04:10:00,6,0
風力(Wind),林口,04:20:00,6,0
風力(Wind),林口,04:30:00,6,0
風力(Wind),林口,04:40:00,6,0
風力(Wind),林口,04:50:00,6,0
風力(Wind),林口,05:00:00,6,0
風力(Wind),林口,05:10:00,6,0
風力(Wind),林口,05:20:00,6,0
風力(Wind),林口,05:30:00,6,0
風力(Wind),林口,05:40:00,6,0
風力(Wind),林口,05:50:00,6,0
風力(Wind),林口,06:00:00,6,0
風力(Wind),林口,06:10:00,6,0
風力(Wind),林口,06:20:00,6,0.1
風力(Wind),林口,06:30:00,6,0
風力(Wind),林口,06:40:00,6,0.3
風力(Wind),林口,06:50:00,6,0.3
風力(Wind),林口,07:00:00,6,0.2
風力(Wind),林口,07:10:00,6,0.3
風力(Wind),林口,07:20:00,6,0.4
風力(Wind),林口,07:30:00,6,0.7
風力(Wind),林口,07:40:00,6,1.1
風力(Wind),林口,07:50:00,6,1.1
風力(Wind),林口,08:00:00,6,0.5
風力(Wind),林口,08:10:00,6,0.2
風力(Wind),林口,08:20:00,6,1.1
風力(Wind),林口,08:30:00,6,0.9
風力(Wind),林口,08:40:00,6,0.7
風力(Wind),林口,08:50:00,6,0.6
風力(Wind),林口,09:00:00,6,0.7
風力(Wind),林口,09:10:00,6,1
風力(Wind),林口,09:20:00,6,0.5
風力(Wind),林口,09:30:00,6,0.4
風力(Wind),林口,09:40:00,6,0.5
風力(Wind),林口,09:50:00,6,1
風力(Wind),林口,10:00:00,6,0.7
風力(Wind),林口,10:10:00,6,1.2
風力(Wind),林口,10:20:00,6,2.1
風力(Wind),林口,10:30:00,6,1.2
風力(Wind),林口,10:40:00,6,1.7
風力(Wind),林口,10:50:00,6,1.7
風力(Wind),林口,11:00:00,6,1
風力(Wind),林口,11:10:00,6,1.4
風力(Wind),林口,11:20:00,6,1.4
風力(Wind),林口,11:30:00,6,1.4
風力(Wind),林口,11:40:00,6,2.3
風力(Wind),林口,11:50:00,6,1.6
風力(Wind),林口,12:00:00,6,1.2
風力(Wind),林口,12:10:00,6,1.3
風力(Wind),林口,12:20:00,6,1.4
風力(Wind),林口,12:30:00,6,1
風力(Wind),林口,12:40:00,6,2.3
風力(Wind),林口,12:50:00,6,2.9
風力(Wind),林口,13:00:00,6,3.1
風力(Wind),林口,13:10:00,6,2.5
風力(Wind),林口,13:20:00,6,2.1
風力(Wind),林口,13:30:00,6,2.9
風力(Wind),林口,13:40:00,6,3.1
風力(Wind),林口,13:50:00,6,2.4
風力(Wind),林口,14:00:00,6,2.6
風力(Wind),林口,14:10:00,6,2.9
風力(Wind),林口,14:20:00,6,2.5
風力(Wind),林口,14:30:00,6,2.2
風力(Wind),林口,14:40:00,6,2.3
風力(Wind),林口,14:50:00,6,1.7
風力(Wind),林口,15:00:00,6,2.3
風力(Wind),林口,15:10:00,6,2.2
風力(Wind),林口,15:20:00,6,2.1
風力(Wind),林口,15:30:00,6,3.1
風力(Wind),林口,15:40:00,6,2.4
風力(Wind),林口,15:50:00,6,1.7
風力(Wind),林口,16:00:00,6,1.2
風力(Wind),林口,16:10:00,6,2
風力(Wind),林口,16:20:00,6,1.8
風力(Wind),林口,16:30:00,6,2.2
風力(Wind),林口,16:40:00,6,2.3
風力(Wind),林口,16:50:00,6,1.9
風力(Wind),林口,17:00:00,6,2.2
風力(Wind),林口,17:10:00,6,1.3
風力(Wind),林口,17:20:00,6,1.5
風力(Wind),林口,17:30:00,6,1.5
風力(Wind),林口,17:40:00,6,0.8
風力(Wind),林口,17:50:00,6,1.3
風力(Wind),林口,18:00:00,6,0.7
風力(Wind),林口,18:10:00,6,0.6
風力(Wind),林口,18:20:00,6,0.8
風力(Wind),林口,18:30:00,6,0.3
風力(Wind),林口,18:40:00,6,0.8
風力(Wind),林口,18:50:00,6,0.1
風力(Wind),林口,19:00:00,6,0.3
風力(Wind),林口,19:10:00,6,0
風力(Wind),林口,19:20:00,6,0.1
風力(Wind),林口,19:30:00,6,0.1
風力(Wind),林口,19:40:00,6,0.1
風力(Wind),林口,19:50:00,6,0.2
風力(Wind),林口,20:00:00,6,0.4
風力(Wind),林口,20:10:00,6,0.3
風力(Wind),林口,20:20:00,6,0.3
風力(Wind),林口,20:30:00,6,0.3
風力(Wind),林口,20:40:00,6,0.4
風力(Wind),林口,20:50:00,6,0.2
風力(Wind),林口,21:00:00,6,0.4
風力(Wind),林口,21:10:00,6,0.4
風力(Wind),林口,21:20:00,6,0.4
風力(Wind),林口,21:30:00,6,0.2
風力(Wind),林口,21:40:00,6,0.3
風力(Wind),林口,21:50:00,6,0.1
風力(Wind),林口,22:00:00,6,0.1
風力(Wind),林口,22:10:00,6,0.1
風力(Wind),林口,22:20:00,6,0.1
風力(Wind),林口,22:30:00,6,0.3
風力(Wind),林口,22:40:00,6,0.3
風力(Wind),林口,22:50:00,6,0.3
風力(Wind),林口,23:00:00,6,0.2
風力(Wind),林口,23:10:00,6,0.2
風力(Wind),林口,23:20:00,6,0.2
風力(Wind),林口,23:30:00,6,0.3
風力(Wind),林口,23:40:00,6,0.2
風力(Wind),林口,23:50:00,6,0.1
風力(Wind),大潭,00:00:00,15.1,3.6
風力(Wind),大潭,00:10:00,15.1,3.3
風力(Wind),大潭,00:20:00,15.1,3.1
風力(Wind),大潭,00:30:00,15.1,3.3
風力(Wind),大潭,00:40:00,15.1,3.4
風力(Wind),大潭,00:50:00,15.1,3.7
風力(Wind),大潭,01:00:00,15.1,3.5
風力(Wind),大潭,01:10:00,15.1,3.4
風力(Wind),大潭,01:20:00,15.1,3.6
風力(Wind),大潭,01:30:00,15.1,3.3
風力(Wind),大潭,01:40:00,15.1,4.1
風力(Wind),大潭,01:50:00,15.1,3.6
風力(Wind),大潭,02:00:00,15.1,3
風力(Wind),大潭,02:10:00,15.1,2.8
風力(Wind),大潭,02:20:00,15.1,2.6
風力(Wind),大潭,02:30:00,15.1,2.3
風力(Wind),大潭,02:40:00,15.1,2.6
風力(Wind),大潭,02:50:00,15.1,3.8
風力(Wind),大潭,03:00:00,15.1,3.7
風力(Wind),大潭,03:10:00,15.1,3.9
風力(Wind),大潭,03:20:00,15.1,2.7
風力(Wind),大潭,03:30:00,15.1,2.5
風力(Wind),大潭,03:40:00,15.1,1.8
風力(Wind),大潭,03:50:00,15.1,1.9
風力(Wind),大潭,04:00:00,15.1,1.3
風力(Wind),大潭,04:10:00,15.1,1.7
風力(Wind),大潭,04:20:00,15.1,1.4
風力(Wind),大潭,04:30:00,15.1,1.1
風力(Wind),大潭,04:40:00,15.1,1.7
風力(Wind),大潭,04:50:00,15.1,2.2
風力(Wind),大潭,05:00:00,15.1,2.6
風力(Wind),大潭,05:10:00,15.1,3
風力(Wind),大潭,05:20:00,15.1,4.9
風力(Wind),大潭,05:30:00,15.1,3.8
風力(Wind),大潭,05:40:00,15.1,5.2
風力(Wind),大潭,05:50:00,15.1,5.7
風力(Wind),大潭,06:00:00,15.1,6.4
風力(Wind),大潭,06:10:00,15.1,5.9
風力(Wind),大潭,06:20:00,15.1,5.3
風力(Wind),大潭,06:30:00,15.1,2.1
風力(Wind),大潭,06:40:00,15.1,0.9
風力(Wind),大潭,06:50:00,15.1,1.2
風力(Wind),大潭,07:00:00,15.1,1.3
風力(Wind),大潭,07:10:00,15.1,0.9
風力(Wind),大潭,07:20:00,15.1,1
風力(Wind),大潭,07:30:00,15.1,2
風力(Wind),大潭,07:40:00,15.1,3.6
風力(Wind),大潭,07:50:00,15.1,4.3
風力(Wind),大潭,08:00:00,15.1,4.5
風力(Wind),大潭,08:10:00,15.1,3.8
風力(Wind),大潭,08:20:00,15.1,3.8
風力(Wind),大潭,08:30:00,15.1,4.7
風力(Wind),大潭,08:40:00,15.1,4.7
風力(Wind),大潭,08:50:00,15.1,4.9
風力(Wind),大潭,09:00:00,15.1,6.5
風力(Wind),大潭,09:10:00,15.1,4.8
風力(Wind),大潭,09:20:00,15.1,6
風力(Wind),大潭,09:30:00,15.1,5.7
風力(Wind),大潭,09:40:00,15.1,6.9
風力(Wind),大潭,09:50:00,15.1,7
風力(Wind),大潭,10:00:00,15.1,7
風力(Wind),大潭,10:10:00,15.1,6
風力(Wind),大潭,10:20:00,15.1,7.9
風力(Wind),大潭,10:30:00,15.1,9.1
風力(Wind),大潭,10:40:00,15.1,7.6
風力(Wind),大潭,10:50:00,15.1,7.2
風力(Wind),大潭,11:00:00,15.1,7.2
風力(Wind),大潭,11:10:00,15.1,6.5
風力(Wind),大潭,11:20:00,15.1,6.3
風力(Wind),大潭,11:30:00,15.1,6.4
風力(Wind),大潭,11:40:00,15.1,6.9
風力(Wind),大潭,11:50:00,15.1,7.3
風力(Wind),大潭,12:00:00,15.1,7.9
風力(Wind),大潭,12:10:00,15.1,6.4
風力(Wind),大潭,12:20:00,15.1,7.5
風力(Wind),大潭,12:30:00,15.1,6.5
風力(Wind),大潭,12:40:00,15.1,7.4
風力(Wind),大潭,12:50:00,15.1,7.1
風力(Wind),大潭,13:00:00,15.1,6.2
風力(Wind),大潭,13:10:00,15.1,6.5
風力(Wind),大潭,13:20:00,15.1,6.2
風力(Wind),大潭,13:30:00,15.1,6.7
風力(Wind),大潭,13:40:00,15.1,5.6
風力(Wind),大潭,13:50:00,15.1,6.3
風力(Wind),大潭,14:00:00,15.1,5.2
風力(Wind),大潭,14:10:00,15.1,5.2
風力(Wind),大潭,14:20:00,15.1,5
風力(Wind),大潭,14:30:00,15.1,5.1
風力(Wind),大潭,14:40:00,15.1,5.7
風力(Wind),大潭,14:50:00,15.1,3.6
風力(Wind),大潭,15:00:00,15.1,4.2
風力(Wind),大潭,15:10:00,15.1,3
風力(Wind),大潭,15:20:00,15.1,3.6
風力(Wind),大潭,15:30:00,15.1,4.5
風力(Wind),大潭,15:40:00,15.1,4.7
風力(Wind),大潭,15:50:00,15.1,4.1
風力(Wind),大潭,16:00:00,15.1,3.4
風力(Wind),大潭,16:10:00,15.1,3.7
風力(Wind),大潭,16:20:00,15.1,3.6
風力(Wind),大潭,16:30:00,15.1,3.2
風力(Wind),大潭,16:40:00,15.1,3.7
風力(Wind),大潭,16:50:00,15.1,2.8
風力(Wind),大潭,17:00:00,15.1,4
風力(Wind),大潭,17:10:00,15.1,3.1
風力(Wind),大潭,17:20:00,15.1,3.3
風力(Wind),大潭,17:30:00,15.1,3.2
風力(Wind),大潭,17:40:00,15.1,3.6
風力(Wind),大潭,17:50:00,15.1,3.6
風力(Wind),大潭,18:00:00,15.1,3.3
風力(Wind),大潭,18:10:00,15.1,2.9
風力(Wind),大潭,18:20:00,15.1,4.1
風力(Wind),大潭,18:30:00,15.1,3.3
風力(Wind),大潭,18:40:00,15.1,2.8
風力(Wind),大潭,18:50:00,15.1,3.1
風力(Wind),大潭,19:00:00,15.1,3.3
風力(Wind),大潭,19:10:00,15.1,2.3
風力(Wind),大潭,19:20:00,15.1,2.3
風力(Wind),大潭,19:30:00,15.1,2.3
風力(Wind),大潭,19:40:00,15.1,1.3
風力(Wind),大潭,19:50:00,15.1,1.3
風力(Wind),大潭,20:00:00,15.1,1.4
風力(Wind),大潭,20:10:00,15.1,1.3
風力(Wind),大潭,20:20:00,15.1,1.5
風力(Wind),大潭,20:30:00,15.1,1.5
風力(Wind),大潭,20:40:00,15.1,1.8
風力(Wind),大潭,20:50:00,15.1,1.9
風力(Wind),大潭,21:00:00,15.1,1.8
風力(Wind),大潭,21:10:00,15.1,1.6
風力(Wind),大潭,21:20:00,15.1,1.1
風力(Wind),大潭,21:30:00,15.1,1.1
風力(Wind),大潭,21:40:00,15.1,1.2
風力(Wind),大潭,21:50:00,15.1,1.1
風力(Wind),大潭,22:00:00,15.1,1.1
風力(Wind),大潭,22:10:00,15.1,1.4
風力(Wind),大潭,22:20:00,15.1,1.5
風力(Wind),大潭,22:30:00,15.1,1.1
風力(Wind),大潭,22:40:00,15.1,1
風力(Wind),大潭,22:50:00,15.1,1.3
風力(Wind),大潭,23:00:00,15.1,0.9
風力(Wind),大潭,23:10:00,15.1,1.1
風力(Wind),大潭,23:20:00,15.1,1.3
風力(Wind),大潭,23:30:00,15.1,1
風力(Wind),大潭,23:40:00,15.1,1.2
風力(Wind),大潭,23:50:00,15.1,1.3
風力(Wind),觀園,00:00:00,30,5.6
風力(Wind),觀園,00:10:00,30,5.9
風力(Wind),觀園,00:20:00,30,6.8
風力(Wind),觀園,00:30:00,30,5.6
風力(Wind),觀園,00:40:00,30,5.5
風力(Wind),觀園,00:50:00,30,6.1
風力(Wind),觀園,01:00:00,30,4.9
風力(Wind),觀園,01:10:00,30,3.6
風力(Wind),觀園,01:20:00,30,4.1
風力(Wind),觀園,01:30:00,30,4.3
風力(Wind),觀園,01:40:00,30,3.2
風力(Wind),觀園,01:50:00,30,2.6
風力(Wind),觀園,02:00:00,30,1.5
風力(Wind),觀園,02:10:00,30,0.7
風力(Wind),觀園,02:20:00,30,0.3
風力(Wind),觀園,02:30:00,30,0.4
風力(Wind),觀園,02:40:00,30,1.2
風力(Wind),觀園,02:50:00,30,1.3
風力(Wind),觀園,03:00:00,30,1.1
風力(Wind),觀園,03:10:00,30,0.8
風力(Wind),觀園,03:20:00,30,1
風力(Wind),觀園,03:30:00,30,0.7
風力(Wind),觀園,03:40:00,30,0.4
風力(Wind),觀園,03:50:00,30,0.5
風力(Wind),觀園,04:00:00,30,0.7
風力(Wind),觀園,04:10:00,30,0.9
風力(Wind),觀園,04:20:00,30,0.7
風力(Wind),觀園,04:30:00,30,0.5
風力(Wind),觀園,04:40:00,30,0.8
風力(Wind),觀園,04:50:00,30,0.4
風力(Wind),觀園,05:00:00,30,0.7
風力(Wind),觀園,05:10:00,30,0.7
風力(Wind),觀園,05:20:00,30,1
風力(Wind),觀園,05:30:00,30,0.9
風力(Wind),觀園,05:40:00,30,0.4
風力(Wind),觀園,05:50:00,30,0.4
風力(Wind),觀園,06:00:00,30,0.7
風力(Wind),觀園,06:10:00,30,0.9
風力(Wind),觀園,06:20:00,30,0.9
風力(Wind),觀園,06:30:00,30,1.2
風力(Wind),觀園,06:40:00,30,1.5
風力(Wind),觀園,06:50:00,30,1.6
風力(Wind),觀園,07:00:00,30,2.7
風力(Wind),觀園,07:10:00,30,2.4
風力(Wind),觀園,07:20:00,30,3.1
風力(Wind),觀園,07:30:00,30,2.7
風力(Wind),觀園,07:40:00,30,3.3
風力(Wind),觀園,07:50:00,30,3.8
風力(Wind),觀園,08:00:00,30,4.2
風力(Wind),觀園,08:10:00,30,6.5
風力(Wind),觀園,08:20:00,30,7.3
風力(Wind),觀園,08:30:00,30,10.6
風力(Wind),觀園,08:40:00,30,9.8
風力(Wind),觀園,08:50:00,30,12.3
風力(Wind),觀園,09:00:00,30,9.8
風力(Wind),觀園,09:10:00,30,11.9
風力(Wind),觀園,09:20:00,30,11.1
風力(Wind),觀園,09:30:00,30,10.7
風力(Wind),觀園,09:40:00,30,12.9
風力(Wind),觀園,09:50:00,30,15.1
風力(Wind),觀園,10:00:00,30,13.6
風力(Wind),觀園,10:10:00,30,11.3
風力(Wind),觀園,10:20:00,30,10
風力(Wind),觀園,10:30:00,30,12.6
風力(Wind),觀園,10:40:00,30,18.5
風力(Wind),觀園,10:50:00,30,19
風力(Wind),觀園,11:00:00,30,17.3
風力(Wind),觀園,11:10:00,30,16.6
風力(Wind),觀園,11:20:00,30,14.7
風力(Wind),觀園,11:30:00,30,14.3
風力(Wind),觀園,11:40:00,30,13.1
風力(Wind),觀園,11:50:00,30,11.6
風力(Wind),觀園,12:00:00,30,11.7
風力(Wind),觀園,12:10:00,30,13.2
風力(Wind),觀園,12:20:00,30,10.8
風力(Wind),觀園,12:30:00,30,13.8
風力(Wind),觀園,12:40:00,30,12.3
風力(Wind),觀園,12:50:00,30,12
風力(Wind),觀園,13:00:00,30,11
風力(Wind),觀園,13:10:00,30,11.2
風力(Wind),觀園,13:20:00,30,12
風力(Wind),觀園,13:30:00,30,12.2
風力(Wind),觀園,13:40:00,30,10.4
風力(Wind),觀園,13:50:00,30,12.9
風力(Wind),觀園,14:00:00,30,11.1
風力(Wind),觀園,14:10:00,30,11.4
風力(Wind),觀園,14:20:00,30,9.3
風力(Wind),觀園,14:30:00,30,8.9
風力(Wind),觀園,14:40:00,30,7.4
風力(Wind),觀園,14:50:00,30,8.7
風力(Wind),觀園,15:00:00,30,7.8
風力(Wind),觀園,15:10:00,30,9.4
風力(Wind),觀園,15:20:00,30,9.3
風力(Wind),觀園,15:30:00,30,10.1
風力(Wind),觀園,15:40:00,30,8.6
風力(Wind),觀園,15:50:00,30,8.6
風力(Wind),觀園,16:00:00,30,8.6
風力(Wind),觀園,16:10:00,30,8.5
風力(Wind),觀園,16:20:00,30,8.9
風力(Wind),觀園,16:30:00,30,7.5
風力(Wind),觀園,16:40:00,30,10
風力(Wind),觀園,16:50:00,30,10.6
風力(Wind),觀園,17:00:00,30,7.7
風力(Wind),觀園,17:10:00,30,9
風力(Wind),觀園,17:20:00,30,6.5
風力(Wind),觀園,17:30:00,30,5.5
風力(Wind),觀園,17:40:00,30,5.9
風力(Wind),觀園,17:50:00,30,5.8
風力(Wind),觀園,18:00:00,30,4.5
風力(Wind),觀園,18:10:00,30,3.6
風力(Wind),觀園,18:20:00,30,4.6
風力(Wind),觀園,18:30:00,30,4.5
風力(Wind),觀園,18:40:00,30,4.5
風力(Wind),觀園,18:50:00,30,3.8
風力(Wind),觀園,19:00:00,30,3.4
風力(Wind),觀園,19:10:00,30,3
風力(Wind),觀園,19:20:00,30,3.4
風力(Wind),觀園,19:30:00,30,2.6
風力(Wind),觀園,19:40:00,30,2.5
風力(Wind),觀園,19:50:00,30,2.3
風力(Wind),觀園,20:00:00,30,2.5
風力(Wind),觀園,20:10:00,30,2.5
風力(Wind),觀園,20:20:00,30,2.2
風力(Wind),觀園,20:30:00,30,2
風力(Wind),觀園,20:40:00,30,2.4
風力(Wind),觀園,20:50:00,30,2.7
風力(Wind),觀園,21:00:00,30,2.9
風力(Wind),觀園,21:10:00,30,3.9
風力(Wind),觀園,21:20:00,30,3.8
風力(Wind),觀園,21:30:00,30,3.7
風力(Wind),觀園,21:40:00,30,4.2
風力(Wind),觀園,21:50:00,30,3.6
風力(Wind),觀園,22:00:00,30,3.6
風力(Wind),觀園,22:10:00,30,3.3
風力(Wind),觀園,22:20:00,30,2.3
風力(Wind),觀園,22:30:00,30,1.6
風力(Wind),觀園,22:40:00,30,1.8
風力(Wind),觀園,22:50:00,30,1.8
風力(Wind),觀園,23:00:00,30,1.7
風力(Wind),觀園,23:10:00,30,0.9
風力(Wind),觀園,23:20:00,30,1.3
風力(Wind),觀園,23:30:00,30,1.6
風力(Wind),觀園,23:40:00,30,1.6
風力(Wind),觀園,23:50:00,30,1.7
風力(Wind),香山,00:00:00,12,1.4
風力(Wind),香山,00:10:00,12,1
風力(Wind),香山,00:20:00,12,1.3
風力(Wind),香山,00:30:00,12,1.1
風力(Wind),香山,00:40:00,12,0.9
風力(Wind),香山,00:50:00,12,1.2
風力(Wind),香山,01:00:00,12,0.9
風力(Wind),香山,01:10:00,12,0.6
風力(Wind),香山,01:20:00,12,0.7
風力(Wind),香山,01:30:00,12,0.7
風力(Wind),香山,01:40:00,12,0.5
風力(Wind),香山,01:50:00,12,0.6
風力(Wind),香山,02:00:00,12,0.4
風力(Wind),香山,02:10:00,12,0.3
風力(Wind),香山,02:20:00,12,0.3
風力(Wind),香山,02:30:00,12,0.3
風力(Wind),香山,02:40:00,12,0.3
風力(Wind),香山,02:50:00,12,0.3
風力(Wind),香山,03:00:00,12,0.2
風力(Wind),香山,03:10:00,12,0.2
風力(Wind),香山,03:20:00,12,0.1
風力(Wind),香山,03:30:00,12,0.2
風力(Wind),香山,03:40:00,12,0.1
風力(Wind),香山,03:50:00,12,0.1
風力(Wind),香山,04:00:00,12,0.1
風力(Wind),香山,04:10:00,12,0
風力(Wind),香山,04:20:00,12,0
風力(Wind),香山,04:30:00,12,0.1
風力(Wind),香山,04:40:00,12,0.1
風力(Wind),香山,04:50:00,12,0.1
風力(Wind),香山,05:00:00,12,0
風力(Wind),香山,05:10:00,12,0
風力(Wind),香山,05:20:00,12,0
風力(Wind),香山,05:30:00,12,0
風力(Wind),香山,05:40:00,12,0.1
風力(Wind),香山,05:50:00,12,0.2
風力(Wind),香山,06:00:00,12,0.1
風力(Wind),香山,06:10:00,12,0.2
風力(Wind),香山,06:20:00,12,0.2
風力(Wind),香山,06:30:00,12,0.2
風力(Wind),香山,06:40:00,12,0.2
風力(Wind),香山,06:50:00,12,0.2
風力(Wind),香山,07:00:00,12,0.2
風力(Wind),香山,07:10:00,12,0.1
風力(Wind),香山,07:20:00,12,0.2
風力(Wind),香山,07:30:00,12,0.3
風力(Wind),香山,07:40:00,12,0.1
風力(Wind),香山,07:50:00,12,0.3
風力(Wind),香山,08:00:00,12,1.1
風力(Wind),香山,08:10:00,12,0.7
風力(Wind),香山,08:20:00,12,0.3
風力(Wind),香山,08:30:00,12,0.7
風力(Wind),香山,08:40:00,12,0.7
風力(Wind),香山,08:50:00,12,1
風力(Wind),香山,09:00:00,12,1.3
風力(Wind),香山,09:10:00,12,2.4
風力(Wind),香山,09:20:00,12,2.8
風力(Wind),香山,09:30:00,12,2.9
風力(Wind),香山,09:40:00,12,2.9
風力(Wind),香山,09:50:00,12,2.8
風力(Wind),香山,10:00:00,12,2.3
風力(Wind),香山,10:10:00,12,2.8
風力(Wind),香山,10:20:00,12,2.9
風力(Wind),香山,10:30:00,12,2.7
風力(Wind),香山,10:40:00,12,3.1
風力(Wind),香山,10:50:00,12,2.6
風力(Wind),香山,11:00:00,12,2.7
風力(Wind),香山,11:10:00,12,2.4
風力(Wind),香山,11:20:00,12,2.2
風力(Wind),香山,11:30:00,12,2.6
風力(Wind),香山,11:40:00,12,2.9
風力(Wind),香山,11:50:00,12,3.2
風力(Wind),香山,12:00:00,12,3.2
風力(Wind),香山,12:10:00,12,3.1
風力(Wind),香山,12:20:00,12,3.2
風力(Wind),香山,12:30:00,12,3.7
風力(Wind),香山,12:40:00,12,3.6
風力(Wind),香山,12:50:00,12,3.2
風力(Wind),香山,13:00:00,12,3
風力(Wind),香山,13:10:00,12,3.3
風力(Wind),香山,13:20:00,12,3.2
風力(Wind),香山,13:30:00,12,3.1
風力(Wind),香山,13:40:00,12,2.7
風力(Wind),香山,13:50:00,12,2.7
風力(Wind),香山,14:00:00,12,2.4
風力(Wind),香山,14:10:00,12,2.8
風力(Wind),香山,14:20:00,12,2.1
風力(Wind),香山,14:30:00,12,2.5
風力(Wind),香山,14:40:00,12,2.3
風力(Wind),香山,14:50:00,12,2.1
風力(Wind),香山,15:00:00,12,1.6
風力(Wind),香山,15:10:00,12,2
風力(Wind),香山,15:20:00,12,1.4
風力(Wind),香山,15:30:00,12,1.6
風力(Wind),香山,15:40:00,12,1.8
風力(Wind),香山,15:50:00,12,1.5
風力(Wind),香山,16:00:00,12,1.6
風力(Wind),香山,16:10:00,12,1.4
風力(Wind),香山,16:20:00,12,1.5
風力(Wind),香山,16:30:00,12,1.5
風力(Wind),香山,16:40:00,12,1.3
風力(Wind),香山,16:50:00,12,1.2
風力(Wind),香山,17:00:00,12,1.2
風力(Wind),香山,17:10:00,12,1.1
風力(Wind),香山,17:20:00,12,0.6
風力(Wind),香山,17:30:00,12,0.7
風力(Wind),香山,17:40:00,12,0.5
風力(Wind),香山,17:50:00,12,0.5
風力(Wind),香山,18:00:00,12,0.5
風力(Wind),香山,18:10:00,12,0.6
風力(Wind),香山,18:20:00,12,0.4
風力(Wind),香山,18:30:00,12,0.1
風力(Wind),香山,18:40:00,12,0.2
風力(Wind),香山,18:50:00,12,0.2
風力(Wind),香山,19:00:00,12,0
風力(Wind),香山,19:10:00,12,0.2
風力(Wind),香山,19:20:00,12,0.3
風力(Wind),香山,19:30:00,12,0.2
風力(Wind),香山,19:40:00,12,0.3
風力(Wind),香山,19:50:00,12,0.2
風力(Wind),香山,20:00:00,12,0.1
風力(Wind),香山,20:10:00,12,0.3
風力(Wind),香山,20:20:00,12,0.2
風力(Wind),香山,20:30:00,12,0.3
風力(Wind),香山,20:40:00,12,0.4
風力(Wind),香山,20:50:00,12,0.2
風力(Wind),香山,21:00:00,12,0.2
風力(Wind),香山,21:10:00,12,0.2
風力(Wind),香山,21:20:00,12,0.2
風力(Wind),香山,21:30:00,12,0.1
風力(Wind),香山,21:40:00,12,0.1
風力(Wind),香山,21:50:00,12,0
風力(Wind),香山,22:00:00,12,0.1
風力(Wind),香山,22:10:00,12,0.1
風力(Wind),香山,22:20:00,12,0
風力(Wind),香山,22:30:00,12,0
風力(Wind),香山,22:40:00,12,0
風力(Wind),香山,22:50:00,12,0.1
風力(Wind),香山,23:00:00,12,0.1
風力(Wind),香山,23:10:00,12,0.1
風力(Wind),香山,23:20:00,12,0.1
風力(Wind),香山,23:30:00,12,0.1
風力(Wind),香山,23:40:00,12,0.1
風力(Wind),香山,23:50:00,12,0.2
風力(Wind),王功,00:00:00,23,1.4
風力(Wind),王功,00:10:00,23,1.6
風力(Wind),王功,00:20:00,23,1.8
風力(Wind),王功,00:30:00,23,1.9
風力(Wind),王功,00:40:00,23,2.1
風力(Wind),王功,00:50:00,23,1.1
風力(Wind),王功,01:00:00,23,1
風力(Wind),王功,01:10:00,23,0.9
風力(Wind),王功,01:20:00,23,1.2
風力(Wind),王功,01:30:00,23,1.7
風力(Wind),王功,01:40:00,23,1.5
風力(Wind),王功,01:50:00,23,1.7
風力(Wind),王功,02:00:00,23,2
風力(Wind),王功,02:10:00,23,2.1
風力(Wind),王功,02:20:00,23,1.9
風力(Wind),王功,02:30:00,23,2.2
風力(Wind),王功,02:40:00,23,1.8
風力(Wind),王功,02:50:00,23,1.7
風力(Wind),王功,03:00:00,23,1.5
風力(Wind),王功,03:10:00,23,1.1
風力(Wind),王功,03:20:00,23,1
風力(Wind),王功,03:30:00,23,0.8
風力(Wind),王功,03:40:00,23,0.8
風力(Wind),王功,03:50:00,23,0.8
風力(Wind),王功,04:00:00,23,0.8
風力(Wind),王功,04:10:00,23,0.5
風力(Wind),王功,04:20:00,23,0.6
風力(Wind),王功,04:30:00,23,0.4
風力(Wind),王功,04:40:00,23,0.6
風力(Wind),王功,04:50:00,23,0.5
風力(Wind),王功,05:00:00,23,0.5
風力(Wind),王功,05:10:00,23,0.4
風力(Wind),王功,05:20:00,23,0.6
風力(Wind),王功,05:30:00,23,0.4
風力(Wind),王功,05:40:00,23,0.5
風力(Wind),王功,05:50:00,23,0.4
風力(Wind),王功,06:00:00,23,0.4
風力(Wind),王功,06:10:00,23,0.3
風力(Wind),王功,06:20:00,23,0.4
風力(Wind),王功,06:30:00,23,0.4
風力(Wind),王功,06:40:00,23,0.3
風力(Wind),王功,06:50:00,23,0.3
風力(Wind),王功,07:00:00,23,0.3
風力(Wind),王功,07:10:00,23,0.4
風力(Wind),王功,07:20:00,23,0.2
風力(Wind),王功,07:30:00,23,0.1
風力(Wind),王功,07:40:00,23,0.3
風力(Wind),王功,07:50:00,23,0.4
風力(Wind),王功,08:00:00,23,1.1
風力(Wind),王功,08:10:00,23,1.5
風力(Wind),王功,08:20:00,23,1.8
風力(Wind),王功,08:30:00,23,2.1
風力(Wind),王功,08:40:00,23,2.3
風力(Wind),王功,08:50:00,23,2.4
風力(Wind),王功,09:00:00,23,3.1
風力(Wind),王功,09:10:00,23,3.5
風力(Wind),王功,09:20:00,23,4.2
風力(Wind),王功,09:30:00,23,3.7
風力(Wind),王功,09:40:00,23,3.9
風力(Wind),王功,09:50:00,23,3.6
風力(Wind),王功,10:00:00,23,3
風力(Wind),王功,10:10:00,23,3.3
風力(Wind),王功,10:20:00,23,3.4
風力(Wind),王功,10:30:00,23,3.3
風力(Wind),王功,10:40:00,23,3.8
風力(Wind),王功,10:50:00,23,4
風力(Wind),王功,11:00:00,23,4
風力(Wind),王功,11:10:00,23,3.4
風力(Wind),王功,11:20:00,23,3.6
風力(Wind),王功,11:30:00,23,4.7
風力(Wind),王功,11:40:00,23,3.8
風力(Wind),王功,11:50:00,23,3.3
風力(Wind),王功,12:00:00,23,3
風力(Wind),王功,12:10:00,23,3.3
風力(Wind),王功,12:20:00,23,3.2
風力(Wind),王功,12:30:00,23,4
風力(Wind),王功,12:40:00,23,3.9
風力(Wind),王功,12:50:00,23,3.6
風力(Wind),王功,13:00:00,23,3.7
風力(Wind),王功,13:10:00,23,3.2
風力(Wind),王功,13:20:00,23,3.8
風力(Wind),王功,13:30:00,23,2.8
風力(Wind),王功,13:40:00,23,2.9
風力(Wind),王功,13:50:00,23,3.2
風力(Wind),王功,14:00:00,23,3
風力(Wind),王功,14:10:00,23,1.9
風力(Wind),王功,14:20:00,23,1.8
風力(Wind),王功,14:30:00,23,2.4
風力(Wind),王功,14:40:00,23,2.5
風力(Wind),王功,14:50:00,23,2.4
風力(Wind),王功,15:00:00,23,2
風力(Wind),王功,15:10:00,23,2.4
風力(Wind),王功,15:20:00,23,2.7
風力(Wind),王功,15:30:00,23,2.3
風力(Wind),王功,15:40:00,23,2.6
風力(Wind),王功,15:50:00,23,2.2
風力(Wind),王功,16:00:00,23,1.7
風力(Wind),王功,16:10:00,23,1.3
風力(Wind),王功,16:20:00,23,1.2
風力(Wind),王功,16:30:00,23,1.3
風力(Wind),王功,16:40:00,23,1.2
風力(Wind),王功,16:50:00,23,1.2
風力(Wind),王功,17:00:00,23,0.8
風力(Wind),王功,17:10:00,23,0.8
風力(Wind),王功,17:20:00,23,0.4
風力(Wind),王功,17:30:00,23,0.5
風力(Wind),王功,17:40:00,23,0.4
風力(Wind),王功,17:50:00,23,0.7
風力(Wind),王功,18:00:00,23,0.7
風力(Wind),王功,18:10:00,23,0.6
風力(Wind),王功,18:20:00,23,0.7
風力(Wind),王功,18:30:00,23,0.6
風力(Wind),王功,18:40:00,23,0.6
風力(Wind),王功,18:50:00,23,0.8
風力(Wind),王功,19:00:00,23,0.6
風力(Wind),王功,19:10:00,23,0.6
風力(Wind),王功,19:20:00,23,0.6
風力(Wind),王功,19:30:00,23,0.5
風力(Wind),王功,19:40:00,23,0.6
風力(Wind),王功,19:50:00,23,0.6
風力(Wind),王功,20:00:00,23,0.9
風力(Wind),王功,20:10:00,23,0.7
風力(Wind),王功,20:20:00,23,0.6
風力(Wind),王功,20:30:00,23,0.8
風力(Wind),王功,20:40:00,23,0.7
風力(Wind),王功,20:50:00,23,0.9
風力(Wind),王功,21:00:00,23,0.7
風力(Wind),王功,21:10:00,23,0.7
風力(Wind),王功,21:20:00,23,0.8
風力(Wind),王功,21:30:00,23,0.8
風力(Wind),王功,21:40:00,23,0.7
風力(Wind),王功,21:50:00,23,1.1
風力(Wind),王功,22:00:00,23,1.4
風力(Wind),王功,22:10:00,23,1.4
風力(Wind),王功,22:20:00,23,1.5
風力(Wind),王功,22:30:00,23,1.1
風力(Wind),王功,22:40:00,23,1.1
風力(Wind),王功,22:50:00,23,1.2
風力(Wind),王功,23:00:00,23,1.1
風力(Wind),王功,23:10:00,23,0.8
風力(Wind),王功,23:20:00,23,0.7
風力(Wind),王功,23:30:00,23,0.8
風力(Wind),王功,23:40:00,23,0.4
風力(Wind),王功,23:50:00,23,0.6
風力(Wind),彰工,00:00:00,62,5.2
風力(Wind),彰工,00:10:00,62,5.7
風力(Wind),彰工,00:20:00,62,7